Voltar ao catálogo

STARLINK-38182

AtivoComunicaçõesSSO
NORAD 100148·PAYLOAD·🇺🇸 United States

Lançado Jul 25, 2026 de Vandenberg Space Force Base

Loading…

Próximas Passagens (próximas 24 horas)

TLE

AtualizadoSource: Space-Track

Época: Sep 14, 2026, 12:41 UTC

1 A0148U 26171A   26257.52916304  .00012244  00000-0  38089-3 0  9996
2 A0148  97.2830 290.0983 0001637 119.9814 240.1591 15.33449869  7983

Acompanhe STARLINK-38182 em tempo real com AllMySat

Download on the App Store